Year,Month,Day,Hour,Minute,Value (Times are PST for temperature in C)
2013,08,23,00,00,15.00
2013,08,23,00,01,15.00
2013,08,23,00,02,15.00
2013,08,23,00,03,15.00
2013,08,23,00,04,15.00
2013,08,23,00,05,15.00
2013,08,23,00,06,14.90
2013,08,23,00,07,14.80
2013,08,23,00,08,14.80
2013,08,23,00,09,14.70
2013,08,23,00,10,14.70
2013,08,23,00,11,14.60
2013,08,23,00,12,14.60
2013,08,23,00,13,14.60
2013,08,23,00,14,14.50
2013,08,23,00,15,14.50
2013,08,23,00,16,14.40
2013,08,23,00,17,14.40
2013,08,23,00,18,14.40
2013,08,23,00,19,14.40
2013,08,23,00,20,14.40
2013,08,23,00,21,14.30
2013,08,23,00,22,14.30
2013,08,23,00,23,14.30
2013,08,23,00,24,14.30
2013,08,23,00,25,14.30
2013,08,23,00,26,14.30
2013,08,23,00,27,14.20
2013,08,23,00,28,14.20
2013,08,23,00,29,14.20
2013,08,23,00,30,14.20
2013,08,23,00,31,14.10
2013,08,23,00,32,14.10
2013,08,23,00,33,14.10
2013,08,23,00,34,14.00
2013,08,23,00,35,14.00
2013,08,23,00,36,13.90
2013,08,23,00,37,13.90
2013,08,23,00,38,13.90
2013,08,23,00,39,13.90
2013,08,23,00,40,13.80
2013,08,23,00,41,13.80
2013,08,23,00,42,13.80
2013,08,23,00,43,13.70
2013,08,23,00,44,13.70
2013,08,23,00,45,13.70
2013,08,23,00,46,13.70
2013,08,23,00,47,13.70
2013,08,23,00,48,13.60
2013,08,23,00,49,13.60
2013,08,23,00,50,13.60
2013,08,23,00,51,13.60
2013,08,23,00,52,13.60
2013,08,23,00,53,13.60
2013,08,23,00,54,13.60
2013,08,23,00,55,13.60
2013,08,23,00,56,13.60
2013,08,23,00,57,13.60
2013,08,23,00,58,13.50
2013,08,23,00,59,13.50
2013,08,23,01,00,13.50
2013,08,23,01,01,13.40
2013,08,23,01,02,13.40
2013,08,23,01,03,13.40
2013,08,23,01,04,13.40
2013,08,23,01,05,13.40
2013,08,23,01,06,13.40
2013,08,23,01,07,13.40
2013,08,23,01,08,13.40
2013,08,23,01,09,13.40
2013,08,23,01,10,13.30
2013,08,23,01,11,13.30
2013,08,23,01,12,13.30
2013,08,23,01,13,13.30
2013,08,23,01,14,13.20
2013,08,23,01,15,13.20
2013,08,23,01,16,13.10
2013,08,23,01,17,13.00
2013,08,23,01,18,12.90
2013,08,23,01,19,12.80
2013,08,23,01,20,12.80
2013,08,23,01,21,12.70
2013,08,23,01,22,12.70
2013,08,23,01,23,12.70
2013,08,23,01,24,12.60
2013,08,23,01,25,12.60
2013,08,23,01,26,12.60
2013,08,23,01,27,12.50
2013,08,23,01,28,12.50
2013,08,23,01,29,12.50
2013,08,23,01,30,12.50
2013,08,23,01,31,12.40
2013,08,23,01,32,12.40
2013,08,23,01,33,12.40
2013,08,23,01,34,12.40
2013,08,23,01,35,12.40
2013,08,23,01,36,12.40
2013,08,23,01,37,12.40
2013,08,23,01,38,12.40
2013,08,23,01,39,12.40
2013,08,23,01,40,12.40
2013,08,23,01,41,12.40
2013,08,23,01,42,12.40
2013,08,23,01,43,12.40
2013,08,23,01,44,12.40
2013,08,23,01,45,12.40
2013,08,23,01,46,12.40
2013,08,23,01,47,12.40
2013,08,23,01,48,12.40
2013,08,23,01,49,12.40
2013,08,23,01,50,12.40
2013,08,23,01,51,12.40
2013,08,23,01,52,12.40
2013,08,23,01,53,12.40
2013,08,23,01,54,12.40
2013,08,23,01,55,12.40
2013,08,23,01,56,12.30
2013,08,23,01,57,12.30
2013,08,23,01,58,12.30
2013,08,23,01,59,12.30
2013,08,23,02,00,12.30
2013,08,23,02,01,12.20
2013,08,23,02,02,12.20
2013,08,23,02,03,12.20
2013,08,23,02,04,12.10
2013,08,23,02,05,12.10
2013,08,23,02,06,12.10
2013,08,23,02,07,12.10
2013,08,23,02,08,12.00
2013,08,23,02,09,12.00
2013,08,23,02,10,12.00
2013,08,23,02,11,11.90
2013,08,23,02,12,11.90
2013,08,23,02,13,11.80
2013,08,23,02,14,11.80
2013,08,23,02,15,11.70
2013,08,23,02,16,11.70
2013,08,23,02,17,11.60
2013,08,23,02,18,11.60
2013,08,23,02,19,11.60
2013,08,23,02,20,11.60
2013,08,23,02,21,11.60
2013,08,23,02,22,11.50
2013,08,23,02,23,11.50
2013,08,23,02,24,11.50
2013,08,23,02,25,11.50
2013,08,23,02,26,11.40
2013,08,23,02,27,11.40
2013,08,23,02,28,11.40
2013,08,23,02,29,11.40
2013,08,23,02,30,11.40
2013,08,23,02,31,11.40
2013,08,23,02,32,11.40
2013,08,23,02,33,11.40
2013,08,23,02,34,11.40
2013,08,23,02,35,11.40
2013,08,23,02,36,11.40
2013,08,23,02,37,11.40
2013,08,23,02,38,11.50
2013,08,23,02,39,11.50
2013,08,23,02,40,11.50
2013,08,23,02,41,11.60
2013,08,23,02,42,11.60
2013,08,23,02,43,11.60
2013,08,23,02,44,11.60
2013,08,23,02,45,11.70
2013,08,23,02,46,11.70
2013,08,23,02,47,11.70
2013,08,23,02,48,11.80
2013,08,23,02,49,11.80
2013,08,23,02,50,11.80
2013,08,23,02,51,11.80
2013,08,23,02,52,11.80
2013,08,23,02,53,11.80
2013,08,23,02,54,11.70
2013,08,23,02,55,11.70
2013,08,23,02,56,11.70
2013,08,23,02,57,11.60
2013,08,23,02,58,11.60
2013,08,23,02,59,11.60
2013,08,23,03,00,11.50
2013,08,23,03,01,11.50
2013,08,23,03,02,11.50
2013,08,23,03,03,11.40
2013,08,23,03,04,11.40
2013,08,23,03,05,11.40
2013,08,23,03,06,11.40
2013,08,23,03,07,11.40
2013,08,23,03,08,11.40
2013,08,23,03,09,11.40
2013,08,23,03,10,11.30
2013,08,23,03,11,11.30
2013,08,23,03,12,11.30
2013,08,23,03,13,11.30
2013,08,23,03,14,11.30
2013,08,23,03,15,11.30
2013,08,23,03,16,11.30
2013,08,23,03,17,11.30
2013,08,23,03,18,11.30
2013,08,23,03,19,11.30
2013,08,23,03,20,11.30
2013,08,23,03,21,11.40
2013,08,23,03,22,11.40
2013,08,23,03,23,11.50
2013,08,23,03,24,11.50
2013,08,23,03,25,11.50
2013,08,23,03,26,11.60
2013,08,23,03,27,11.60
2013,08,23,03,28,11.60
2013,08,23,03,29,11.60
2013,08,23,03,30,11.70
2013,08,23,03,31,11.70
2013,08,23,03,32,11.70
2013,08,23,03,33,11.70
2013,08,23,03,34,11.70
2013,08,23,03,35,11.80
2013,08,23,03,36,11.80
2013,08,23,03,37,11.70
2013,08,23,03,38,11.70
2013,08,23,03,39,11.70
2013,08,23,03,40,11.70
2013,08,23,03,41,11.70
2013,08,23,03,42,11.70
2013,08,23,03,43,11.60
2013,08,23,03,44,11.60
2013,08,23,03,45,11.60
2013,08,23,03,46,11.60
2013,08,23,03,47,11.60
2013,08,23,03,48,11.60
2013,08,23,03,49,11.50
2013,08,23,03,50,11.50
2013,08,23,03,51,11.50
2013,08,23,03,52,11.50
2013,08,23,03,53,11.50
2013,08,23,03,54,11.50
2013,08,23,03,55,11.50
2013,08,23,03,56,11.50
2013,08,23,03,57,11.50
2013,08,23,03,58,11.50
2013,08,23,03,59,11.50
2013,08,23,04,00,11.50
2013,08,23,04,01,11.50
2013,08,23,04,02,11.50
2013,08,23,04,03,11.50
2013,08,23,04,04,11.50
2013,08,23,04,05,11.50
2013,08,23,04,06,11.50
2013,08,23,04,07,11.50
2013,08,23,04,08,11.50
2013,08,23,04,09,11.50
2013,08,23,04,10,11.50
2013,08,23,04,11,11.50
2013,08,23,04,12,11.50
2013,08,23,04,13,11.50
2013,08,23,04,14,11.50
2013,08,23,04,15,11.50
2013,08,23,04,16,11.40
2013,08,23,04,17,11.40
2013,08,23,04,18,11.40
2013,08,23,04,19,11.30
2013,08,23,04,20,11.30
2013,08,23,04,21,11.30
2013,08,23,04,22,11.30
2013,08,23,04,23,11.30
2013,08,23,04,24,11.30
2013,08,23,04,25,11.30
2013,08,23,04,26,11.30
2013,08,23,04,27,11.40
2013,08,23,04,28,11.40
2013,08,23,04,29,11.40
2013,08,23,04,30,11.40
2013,08,23,04,31,11.40
2013,08,23,04,32,11.40
2013,08,23,04,33,11.30
2013,08,23,04,34,11.30
2013,08,23,04,35,11.30
2013,08,23,04,36,11.30
2013,08,23,04,37,11.40
2013,08,23,04,38,11.40
2013,08,23,04,39,11.40
2013,08,23,04,40,11.40
2013,08,23,04,41,11.40
2013,08,23,04,42,11.40
2013,08,23,04,43,11.40
2013,08,23,04,44,11.40
2013,08,23,04,45,11.40
2013,08,23,04,46,11.50
2013,08,23,04,47,11.50
2013,08,23,04,48,11.50
2013,08,23,04,49,11.50
2013,08,23,04,50,11.50
2013,08,23,04,51,11.50
2013,08,23,04,52,11.40
2013,08,23,04,53,11.50
2013,08,23,04,54,11.50
2013,08,23,04,55,11.50
2013,08,23,04,56,11.50
2013,08,23,04,57,11.50
2013,08,23,04,58,11.50
2013,08,23,04,59,11.50
2013,08,23,05,00,11.50
2013,08,23,05,01,11.50
2013,08,23,05,02,11.60
2013,08,23,05,03,11.60
2013,08,23,05,04,11.60
2013,08,23,05,05,11.50
2013,08,23,05,06,11.50
2013,08,23,05,07,11.50
2013,08,23,05,08,11.50
2013,08,23,05,09,11.60
2013,08,23,05,10,11.60
2013,08,23,05,11,11.60
2013,08,23,05,12,11.60
2013,08,23,05,13,11.60
2013,08,23,05,14,11.60
2013,08,23,05,15,11.60
2013,08,23,05,16,11.60
2013,08,23,05,17,11.60
2013,08,23,05,18,11.60
2013,08,23,05,19,11.60
2013,08,23,05,20,11.60
2013,08,23,05,21,11.60
2013,08,23,05,22,11.60
2013,08,23,05,23,11.60
2013,08,23,05,24,11.50
2013,08,23,05,25,11.50
2013,08,23,05,26,11.50
2013,08,23,05,27,11.40
2013,08,23,05,28,11.40
2013,08,23,05,29,11.40
2013,08,23,05,30,11.40
2013,08,23,05,31,11.40
2013,08,23,05,32,11.40
2013,08,23,05,33,11.40
2013,08,23,05,34,11.30
2013,08,23,05,35,11.30
2013,08,23,05,36,11.40
2013,08,23,05,37,11.40
2013,08,23,05,38,11.30
2013,08,23,05,39,11.30
2013,08,23,05,40,11.30
2013,08,23,05,41,11.30
2013,08,23,05,42,11.20
2013,08,23,05,43,11.20
2013,08,23,05,44,11.20
2013,08,23,05,45,11.20
2013,08,23,05,46,11.10
2013,08,23,05,47,11.10
2013,08,23,05,48,11.10
2013,08,23,05,49,11.10
2013,08,23,05,50,11.10
2013,08,23,05,51,11.20
2013,08,23,05,52,11.20
2013,08,23,05,53,11.20
2013,08,23,05,54,11.20
2013,08,23,05,55,11.20
2013,08,23,05,56,11.30
2013,08,23,05,57,11.30
2013,08,23,05,58,11.30
2013,08,23,05,59,11.30
2013,08,23,06,00,11.30
2013,08,23,06,01,11.30
2013,08,23,06,02,11.30
2013,08,23,06,03,11.30
2013,08,23,06,04,11.30
2013,08,23,06,05,11.30
2013,08,23,06,06,11.30
2013,08,23,06,07,11.30
2013,08,23,06,08,11.30
2013,08,23,06,09,11.30
2013,08,23,06,10,11.30
2013,08,23,06,11,11.30
2013,08,23,06,12,11.30
2013,08,23,06,13,11.30
2013,08,23,06,14,11.30
2013,08,23,06,15,11.30
2013,08,23,06,16,11.20
2013,08,23,06,17,11.20
2013,08,23,06,18,11.30
2013,08,23,06,19,11.30
2013,08,23,06,20,11.30
2013,08,23,06,21,11.30
2013,08,23,06,22,11.30
2013,08,23,06,23,11.30
2013,08,23,06,24,11.30
2013,08,23,06,25,11.30
2013,08,23,06,26,11.30
2013,08,23,06,27,11.30
2013,08,23,06,28,11.30
2013,08,23,06,29,11.30
2013,08,23,06,30,11.30
2013,08,23,06,31,11.30
2013,08,23,06,32,11.30
2013,08,23,06,33,11.30
2013,08,23,06,34,11.30
2013,08,23,06,35,11.30
2013,08,23,06,36,11.30
2013,08,23,06,37,11.30
2013,08,23,06,38,11.30
2013,08,23,06,39,11.30
2013,08,23,06,40,11.30
2013,08,23,06,41,11.30
2013,08,23,06,42,11.30
2013,08,23,06,43,11.30
2013,08,23,06,44,11.30
2013,08,23,06,45,11.30
2013,08,23,06,46,11.30
2013,08,23,06,47,11.30
2013,08,23,06,48,11.30
2013,08,23,06,49,11.20
2013,08,23,06,50,11.20
2013,08,23,06,51,11.20
2013,08,23,06,52,11.20
2013,08,23,06,53,11.20
2013,08,23,06,54,11.20
2013,08,23,06,55,11.20
2013,08,23,06,56,11.20
2013,08,23,06,57,11.20
2013,08,23,06,58,11.20
2013,08,23,06,59,11.20
2013,08,23,07,00,11.20
2013,08,23,07,01,11.20
2013,08,23,07,02,11.20
2013,08,23,07,03,11.20
2013,08,23,07,04,11.20
2013,08,23,07,05,11.20
2013,08,23,07,06,11.20
2013,08,23,07,07,11.20
2013,08,23,07,08,11.20
2013,08,23,07,09,11.20
2013,08,23,07,10,11.20
2013,08,23,07,11,11.20
2013,08,23,07,12,11.20
2013,08,23,07,13,11.30
2013,08,23,07,14,11.30
2013,08,23,07,15,11.30
2013,08,23,07,16,11.30
2013,08,23,07,17,11.30
2013,08,23,07,18,11.30
2013,08,23,07,19,11.30
2013,08,23,07,20,11.30
2013,08,23,07,21,11.40
2013,08,23,07,22,11.40
2013,08,23,07,23,11.40
2013,08,23,07,24,11.40
2013,08,23,07,25,11.40
2013,08,23,07,26,11.50
2013,08,23,07,27,11.50
2013,08,23,07,28,11.50
2013,08,23,07,29,11.60
2013,08,23,07,30,11.60
2013,08,23,07,31,11.70
2013,08,23,07,32,11.70
2013,08,23,07,33,11.80
2013,08,23,07,34,11.80
2013,08,23,07,35,11.80
2013,08,23,07,36,11.80
2013,08,23,07,37,11.90
2013,08,23,07,38,11.90
2013,08,23,07,39,11.90
2013,08,23,07,40,12.00
2013,08,23,07,41,12.00
2013,08,23,07,42,12.10
2013,08,23,07,43,12.20
2013,08,23,07,44,12.20
2013,08,23,07,45,12.30
2013,08,23,07,46,12.40
2013,08,23,07,47,12.40
2013,08,23,07,48,12.50
2013,08,23,07,49,12.60
2013,08,23,07,50,12.60
2013,08,23,07,51,12.70
2013,08,23,07,52,12.70
2013,08,23,07,53,12.80
2013,08,23,07,54,12.80
2013,08,23,07,55,12.90
2013,08,23,07,56,13.00
2013,08,23,07,57,13.20
2013,08,23,07,58,13.30
2013,08,23,07,59,13.40
2013,08,23,08,00,13.50
2013,08,23,08,01,13.60
2013,08,23,08,02,13.70
2013,08,23,08,03,13.80
2013,08,23,08,04,13.90
2013,08,23,08,05,14.00
2013,08,23,08,06,14.10
2013,08,23,08,07,14.20
2013,08,23,08,08,14.30
2013,08,23,08,09,14.40
2013,08,23,08,10,14.60
2013,08,23,08,11,14.70
2013,08,23,08,12,14.90
2013,08,23,08,13,15.00
2013,08,23,08,14,15.00
2013,08,23,08,15,15.00
2013,08,23,08,16,15.10
2013,08,23,08,17,15.30
2013,08,23,08,18,15.40
2013,08,23,08,19,15.60
2013,08,23,08,20,15.70
2013,08,23,08,21,15.80
2013,08,23,08,22,15.90
2013,08,23,08,23,16.10
2013,08,23,08,24,16.20
2013,08,23,08,25,16.30
2013,08,23,08,26,16.40
2013,08,23,08,27,16.50
2013,08,23,08,28,16.70
2013,08,23,08,29,16.80
2013,08,23,08,30,16.90
2013,08,23,08,31,17.00
2013,08,23,08,32,17.00
2013,08,23,08,33,17.10
2013,08,23,08,34,17.20
2013,08,23,08,35,17.30
2013,08,23,08,36,17.30
2013,08,23,08,37,17.40
2013,08,23,08,38,17.40
2013,08,23,08,39,17.50
2013,08,23,08,40,17.50
2013,08,23,08,41,17.60
2013,08,23,08,42,17.60
2013,08,23,08,43,17.70
2013,08,23,08,44,17.70
2013,08,23,08,45,17.80
2013,08,23,08,46,17.80
2013,08,23,08,47,17.90
2013,08,23,08,48,17.90
2013,08,23,08,49,18.00
2013,08,23,08,50,18.10
2013,08,23,08,51,18.10
2013,08,23,08,52,18.20
2013,08,23,08,53,18.20
2013,08,23,08,54,18.20
2013,08,23,08,55,18.30
2013,08,23,08,56,18.40
2013,08,23,08,57,18.40
2013,08,23,08,58,18.50
2013,08,23,08,59,18.60
2013,08,23,09,00,18.60
2013,08,23,09,01,18.60
2013,08,23,09,02,18.60
2013,08,23,09,03,18.70
2013,08,23,09,04,18.70
2013,08,23,09,05,18.80
2013,08,23,09,06,18.80
2013,08,23,09,07,18.90
2013,08,23,09,08,18.90
2013,08,23,09,09,18.90
2013,08,23,09,10,19.00
2013,08,23,09,11,19.00
2013,08,23,09,12,19.10
2013,08,23,09,13,19.10
2013,08,23,09,14,19.20
2013,08,23,09,15,19.20
2013,08,23,09,16,19.30
2013,08,23,09,17,19.30
2013,08,23,09,18,19.30
2013,08,23,09,19,19.30
2013,08,23,09,20,19.20
2013,08,23,09,21,19.20
2013,08,23,09,22,19.20
2013,08,23,09,23,19.20
2013,08,23,09,24,19.30
2013,08,23,09,25,19.30
2013,08,23,09,26,19.30
2013,08,23,09,27,19.30
2013,08,23,09,28,19.40
2013,08,23,09,29,19.40
2013,08,23,09,30,19.50
2013,08,23,09,31,19.50
2013,08,23,09,32,19.50
2013,08,23,09,33,19.60
2013,08,23,09,34,19.50
2013,08,23,09,35,19.40
2013,08,23,09,36,19.40
2013,08,23,09,37,19.40
2013,08,23,09,38,19.40
2013,08,23,09,39,19.40
2013,08,23,09,40,19.40
2013,08,23,09,41,19.40
2013,08,23,09,42,19.50
2013,08,23,09,43,19.50
2013,08,23,09,44,19.60
2013,08,23,09,45,19.60
2013,08,23,09,46,19.70
2013,08,23,09,47,19.70
2013,08,23,09,48,19.70
2013,08,23,09,49,19.70
2013,08,23,09,50,19.70
2013,08,23,09,51,19.80
2013,08,23,09,52,19.90
2013,08,23,09,53,20.00
2013,08,23,09,54,20.00
2013,08,23,09,55,20.00
2013,08,23,09,56,19.90
2013,08,23,09,57,20.00
2013,08,23,09,58,20.00
2013,08,23,09,59,20.10
2013,08,23,10,00,20.20
2013,08,23,10,01,20.20
2013,08,23,10,02,20.20
2013,08,23,10,03,20.30
2013,08,23,10,04,20.30
2013,08,23,10,05,20.20
2013,08,23,10,06,20.20
2013,08,23,10,07,20.20
2013,08,23,10,08,20.30
2013,08,23,10,09,20.30
2013,08,23,10,10,20.30
2013,08,23,10,11,20.40
2013,08,23,10,12,20.50
2013,08,23,10,13,20.50
2013,08,23,10,14,20.50
2013,08,23,10,15,20.50
2013,08,23,10,16,20.60
2013,08,23,10,17,20.60
2013,08,23,10,18,20.60
2013,08,23,10,19,20.70
2013,08,23,10,20,20.70
2013,08,23,10,21,20.80
2013,08,23,10,22,20.80
2013,08,23,10,23,20.90
2013,08,23,10,24,20.90
2013,08,23,10,25,20.90
2013,08,23,10,26,21.00
2013,08,23,10,27,21.00
2013,08,23,10,28,21.00
2013,08,23,10,29,21.10
2013,08,23,10,30,21.20
2013,08,23,10,31,21.30
2013,08,23,10,32,21.40
2013,08,23,10,33,21.40
2013,08,23,10,34,21.40
2013,08,23,10,35,21.40
2013,08,23,10,36,21.30
2013,08,23,10,37,21.30
2013,08,23,10,38,21.30
2013,08,23,10,39,21.40
2013,08,23,10,40,21.40
2013,08,23,10,41,21.40
2013,08,23,10,42,21.30
2013,08,23,10,43,21.40
2013,08,23,10,44,21.40
2013,08,23,10,45,21.40
2013,08,23,10,46,21.40
2013,08,23,10,47,21.30
2013,08,23,10,48,21.30
2013,08,23,10,49,21.30
2013,08,23,10,50,21.30
2013,08,23,10,51,21.30
2013,08,23,10,52,21.30
2013,08,23,10,53,21.30
2013,08,23,10,54,21.30
2013,08,23,10,55,21.30
2013,08,23,10,56,21.30
2013,08,23,10,57,21.40
2013,08,23,10,58,21.50
2013,08,23,10,59,21.50
2013,08,23,11,00,21.60
2013,08,23,11,01,21.60
2013,08,23,11,02,21.70
2013,08,23,11,03,21.70
2013,08,23,11,04,21.80
2013,08,23,11,05,21.80
2013,08,23,11,06,21.80
2013,08,23,11,07,21.80
2013,08,23,11,08,21.80
2013,08,23,11,09,21.80
2013,08,23,11,10,21.80
2013,08,23,11,11,21.70
2013,08,23,11,12,21.70
2013,08,23,11,13,21.80
2013,08,23,11,14,21.80
2013,08,23,11,15,21.80
2013,08,23,11,16,21.80
2013,08,23,11,17,21.80
2013,08,23,11,18,21.80
2013,08,23,11,19,21.80
2013,08,23,11,20,21.80
2013,08,23,11,21,21.80
2013,08,23,11,22,21.80
2013,08,23,11,23,21.80
2013,08,23,11,24,21.90
2013,08,23,11,25,21.90
2013,08,23,11,26,21.90
2013,08,23,11,27,21.90
2013,08,23,11,28,21.80
2013,08,23,11,29,21.80
2013,08,23,11,30,21.70
2013,08,23,11,31,21.80
2013,08,23,11,32,21.80
2013,08,23,11,33,21.80
2013,08,23,11,34,21.90
2013,08,23,11,35,21.90
2013,08,23,11,36,21.80
2013,08,23,11,37,21.80
2013,08,23,11,38,21.80
2013,08,23,11,39,21.80
2013,08,23,11,40,21.80
2013,08,23,11,41,21.80
2013,08,23,11,42,21.80
2013,08,23,11,43,21.80
2013,08,23,11,44,21.80
2013,08,23,11,45,21.80
2013,08,23,11,46,21.70
2013,08,23,11,47,21.60
2013,08,23,11,48,21.70
2013,08,23,11,49,21.70
2013,08,23,11,50,21.70
2013,08,23,11,51,21.70
2013,08,23,11,52,21.70
2013,08,23,11,53,21.70
2013,08,23,11,54,21.70
2013,08,23,11,55,21.70
2013,08,23,11,56,21.70
2013,08,23,11,57,21.70
2013,08,23,11,58,21.80
2013,08,23,11,59,21.90
2013,08,23,12,00,21.90
2013,08,23,12,01,21.80
2013,08,23,12,02,21.80
2013,08,23,12,03,21.80
2013,08,23,12,04,21.80
2013,08,23,12,05,21.80
2013,08,23,12,06,21.80
2013,08,23,12,07,21.80
2013,08,23,12,08,21.80
2013,08,23,12,09,21.80
2013,08,23,12,10,21.70
2013,08,23,12,11,21.60
2013,08,23,12,12,21.60
2013,08,23,12,13,21.60
2013,08,23,12,14,21.60
2013,08,23,12,15,21.60
2013,08,23,12,16,21.60
2013,08,23,12,17,21.50
2013,08,23,12,18,21.50
2013,08,23,12,19,21.40
2013,08,23,12,20,21.40
2013,08,23,12,21,21.40
2013,08,23,12,22,21.50
2013,08,23,12,23,21.50
2013,08,23,12,24,21.60
2013,08,23,12,25,21.70
2013,08,23,12,26,21.80
2013,08,23,12,27,21.80
2013,08,23,12,28,21.80
2013,08,23,12,29,21.90
2013,08,23,12,30,22.00
2013,08,23,12,31,22.20
2013,08,23,12,32,22.10
2013,08,23,12,33,22.10
2013,08,23,12,34,22.20
2013,08,23,12,35,22.20
2013,08,23,12,36,22.10
2013,08,23,12,37,22.00
2013,08,23,12,38,22.00
2013,08,23,12,39,22.00
2013,08,23,12,40,22.10
2013,08,23,12,41,22.00
2013,08,23,12,42,21.80
2013,08,23,12,43,21.70
2013,08,23,12,44,21.50
2013,08,23,12,45,21.40
2013,08,23,12,46,21.30
2013,08,23,12,47,21.30
2013,08,23,12,48,21.30
2013,08,23,12,49,21.40
2013,08,23,12,50,21.40
2013,08,23,12,51,21.50
2013,08,23,12,52,21.50
2013,08,23,12,53,21.60
2013,08,23,12,54,21.70
2013,08,23,12,55,21.80
2013,08,23,12,56,21.80
2013,08,23,12,57,21.80
2013,08,23,12,58,21.80
2013,08,23,12,59,21.80
2013,08,23,13,00,21.80
2013,08,23,13,01,21.80
2013,08,23,13,02,21.80
2013,08,23,13,03,21.80
2013,08,23,13,04,21.70
2013,08,23,13,05,21.50
2013,08,23,13,06,21.50
2013,08,23,13,07,21.40
2013,08,23,13,08,21.30
2013,08,23,13,09,21.30
2013,08,23,13,10,21.30
2013,08,23,13,11,21.30
2013,08,23,13,12,21.30
2013,08,23,13,13,21.30
2013,08,23,13,14,21.30
2013,08,23,13,15,21.20
2013,08,23,13,16,21.20
2013,08,23,13,17,21.20
2013,08,23,13,18,21.20
2013,08,23,13,19,21.20
2013,08,23,13,20,21.40
2013,08,23,13,21,21.50
2013,08,23,13,22,21.60
2013,08,23,13,23,21.80
2013,08,23,13,24,21.80
2013,08,23,13,25,21.80
2013,08,23,13,26,21.70
2013,08,23,13,27,21.70
2013,08,23,13,28,21.60
2013,08,23,13,29,21.70
2013,08,23,13,30,21.80
2013,08,23,13,31,21.80
2013,08,23,13,32,21.80
2013,08,23,13,33,21.90
2013,08,23,13,34,22.00
2013,08,23,13,35,22.00
2013,08,23,13,36,21.90
2013,08,23,13,37,21.80
2013,08,23,13,38,21.70
2013,08,23,13,39,21.70
2013,08,23,13,40,21.70
2013,08,23,13,41,21.80
2013,08,23,13,42,21.90
2013,08,23,13,43,22.00
2013,08,23,13,44,22.00
2013,08,23,13,45,22.10
2013,08,23,13,46,22.20
2013,08,23,13,47,22.30
2013,08,23,13,48,22.50
2013,08,23,13,49,22.70
2013,08,23,13,50,22.70
2013,08,23,13,51,22.50
2013,08,23,13,52,22.40
2013,08,23,13,53,22.50
2013,08,23,13,54,22.50
2013,08,23,13,55,22.50
2013,08,23,13,56,22.50
2013,08,23,13,57,22.40
2013,08,23,13,58,22.40
2013,08,23,13,59,22.60
2013,08,23,14,00,22.70
2013,08,23,14,01,22.80
2013,08,23,14,02,22.80
2013,08,23,14,03,22.70
2013,08,23,14,04,22.70
2013,08,23,14,05,22.60
2013,08,23,14,06,22.70
2013,08,23,14,07,22.70
2013,08,23,14,08,22.80
2013,08,23,14,09,22.90
2013,08,23,14,10,23.10
2013,08,23,14,11,23.20
2013,08,23,14,12,23.20
2013,08,23,14,13,23.20
2013,08,23,14,14,23.20
2013,08,23,14,15,23.30
2013,08,23,14,16,23.20
2013,08,23,14,17,23.20
2013,08,23,14,18,23.20
2013,08,23,14,19,23.20
2013,08,23,14,20,23.10
2013,08,23,14,21,23.00
2013,08,23,14,22,22.80
2013,08,23,14,23,22.80
2013,08,23,14,24,22.60
2013,08,23,14,25,22.50
2013,08,23,14,26,22.30
2013,08,23,14,27,22.20
2013,08,23,14,28,22.10
2013,08,23,14,29,22.00
2013,08,23,14,30,21.90
2013,08,23,14,31,21.80
2013,08,23,14,32,21.80
2013,08,23,14,33,21.70
2013,08,23,14,34,21.70
2013,08,23,14,35,21.70
2013,08,23,14,36,21.80
2013,08,23,14,37,21.90
2013,08,23,14,38,22.00
2013,08,23,14,39,22.10
2013,08,23,14,40,22.20
2013,08,23,14,41,22.20
2013,08,23,14,42,22.00
2013,08,23,14,43,21.70
2013,08,23,14,44,21.30
2013,08,23,14,45,21.00
2013,08,23,14,46,20.60
2013,08,23,14,47,20.50
2013,08,23,14,48,20.30
2013,08,23,14,49,20.10
2013,08,23,14,50,20.10
2013,08,23,14,51,20.00
2013,08,23,14,52,20.00
2013,08,23,14,53,20.10
2013,08,23,14,54,20.00
2013,08,23,14,55,20.00
2013,08,23,14,56,19.90
2013,08,23,14,57,19.80
2013,08,23,14,58,19.70
2013,08,23,14,59,19.70
2013,08,23,15,00,19.60
2013,08,23,15,01,19.60
2013,08,23,15,02,19.60
2013,08,23,15,03,19.70
2013,08,23,15,04,19.80
2013,08,23,15,05,19.80
2013,08,23,15,06,19.80
2013,08,23,15,07,19.90
2013,08,23,15,08,19.80
2013,08,23,15,09,19.90
2013,08,23,15,10,20.00
2013,08,23,15,11,20.00
2013,08,23,15,12,20.10
2013,08,23,15,13,20.10
2013,08,23,15,14,20.10
2013,08,23,15,15,20.10
2013,08,23,15,16,20.20
2013,08,23,15,17,20.30
2013,08,23,15,18,20.30
2013,08,23,15,19,20.40
2013,08,23,15,20,20.30
2013,08,23,15,21,20.30
2013,08,23,15,22,20.30
2013,08,23,15,23,20.30
2013,08,23,15,24,20.30
2013,08,23,15,25,20.30
2013,08,23,15,26,20.20
2013,08,23,15,27,20.00
2013,08,23,15,28,19.80
2013,08,23,15,29,19.70
2013,08,23,15,30,19.70
2013,08,23,15,31,19.60
2013,08,23,15,32,19.50
2013,08,23,15,33,19.50
2013,08,23,15,34,19.40
2013,08,23,15,35,19.30
2013,08,23,15,36,19.30
2013,08,23,15,37,19.40
2013,08,23,15,38,19.50
2013,08,23,15,39,19.60
2013,08,23,15,40,19.60
2013,08,23,15,41,19.70
2013,08,23,15,42,19.80
2013,08,23,15,43,19.80
2013,08,23,15,44,19.70
2013,08,23,15,45,19.70
2013,08,23,15,46,19.70
2013,08,23,15,47,19.70
2013,08,23,15,48,19.70
2013,08,23,15,49,19.70
2013,08,23,15,50,19.70
2013,08,23,15,51,19.80
2013,08,23,15,52,19.80
2013,08,23,15,53,19.90
2013,08,23,15,54,19.90
2013,08,23,15,55,19.90
2013,08,23,15,56,19.90
2013,08,23,15,57,19.80
2013,08,23,15,58,19.80
2013,08,23,15,59,19.70
2013,08,23,16,00,19.70
2013,08,23,16,01,19.60
2013,08,23,16,02,19.50
2013,08,23,16,03,19.40
2013,08,23,16,04,19.30
2013,08,23,16,05,19.20
2013,08,23,16,06,19.10
2013,08,23,16,07,19.00
2013,08,23,16,08,18.90
2013,08,23,16,09,18.90
2013,08,23,16,10,18.90
2013,08,23,16,11,19.00
2013,08,23,16,12,19.00
2013,08,23,16,13,19.00
2013,08,23,16,14,19.00
2013,08,23,16,15,19.10
2013,08,23,16,16,19.10
2013,08,23,16,17,19.20
2013,08,23,16,18,19.10
2013,08,23,16,19,19.00
2013,08,23,16,20,18.90
2013,08,23,16,21,18.90
2013,08,23,16,22,18.80
2013,08,23,16,23,18.80
2013,08,23,16,24,18.80
2013,08,23,16,25,18.70
2013,08,23,16,26,18.70
2013,08,23,16,27,18.70
2013,08,23,16,28,18.70
2013,08,23,16,29,18.70
2013,08,23,16,30,18.70
2013,08,23,16,31,18.70
2013,08,23,16,32,18.70
2013,08,23,16,33,18.80
2013,08,23,16,34,18.80
2013,08,23,16,35,18.80
2013,08,23,16,36,18.90
2013,08,23,16,37,18.90
2013,08,23,16,38,19.00
2013,08,23,16,39,19.00
2013,08,23,16,40,19.10
2013,08,23,16,41,19.10
2013,08,23,16,42,19.10
2013,08,23,16,43,19.00
2013,08,23,16,44,19.00
2013,08,23,16,45,18.90
2013,08,23,16,46,18.90
2013,08,23,16,47,18.80
2013,08,23,16,48,18.70
2013,08,23,16,49,18.70
2013,08,23,16,50,18.70
2013,08,23,16,51,18.60
2013,08,23,16,52,18.60
2013,08,23,16,53,18.60
2013,08,23,16,54,18.60
2013,08,23,16,55,18.50
2013,08,23,16,56,18.50
2013,08,23,16,57,18.60
2013,08,23,16,58,18.60
2013,08,23,16,59,18.60
2013,08,23,17,00,18.60
2013,08,23,17,01,18.50
2013,08,23,17,02,18.50
2013,08,23,17,03,18.40
2013,08,23,17,04,18.40
2013,08,23,17,05,18.40
2013,08,23,17,06,18.30
2013,08,23,17,07,18.30
2013,08,23,17,08,18.30
2013,08,23,17,09,18.30
2013,08,23,17,10,18.40
2013,08,23,17,11,18.40
2013,08,23,17,12,18.40
2013,08,23,17,13,18.40
2013,08,23,17,14,18.40
2013,08,23,17,15,18.40
2013,08,23,17,16,18.50
2013,08,23,17,17,18.50
2013,08,23,17,18,18.60
2013,08,23,17,19,18.60